Wind_Speed
36 36 31 25 21 22 25 28 28 26 26 29 30 29 26 22 20 18 19 23 25 25 26 26 26 26 26 26 25 24 24 23 23 23 23 23 22 22 20 19 19 17 15 13 11 10 10 11 13 13 13 13 13 13 14 15 15 15 15 15 15 13 12
32 34 30 26 24 23 25 30 31 31 31 32 31 31 28 24 21 18 16 20 25 26 26 26 26 26 27 27 26 25 24 24 24 24 23 23 23 22 22 21 20 18 16 13 12 11 11 11 12 12 12 13 14 14 14 14 15 16 16 16 16 14 13
32 33 29 26 25 22 22 25 26 29 32 33 31 29 26 23 20 17 14 16 22 26 26 26 26 26 26 27 27 26 25 24 24 24 23 22 22 22 22 22 22 20 17 15 14 13 12 11 11 11 11 12 14 15 15 14 15 17 17 17 17 16 14
35 32 30 30 28 22 20 21 19 22 28 30 28 25 23 22 21 19 15 14 18 23 26 26 26 26 26 27 27 27 26 25 24 23 22 22 21 22 23 23 23 22 20 17 15 14 13 13 13 12 11 10 11 14 15 15 15 17 18 18 18 17 16
37 32 30 32 31 24 22 22 19 20 24 27 28 26 25 24 22 20 17 15 16 19 22 25 26 26 27 27 28 27 26 25 24 23 22 22 22 23 24 24 25 23 21 19 18 16 15 15 14 14 13 11 10 11 13 15 15 16 18 19 19 19 17
35 33 32 33 33 29 26 23 21 20 21 25 28 26 26 26 24 21 19 17 16 17 20 23 26 27 27 28 28 27 27 26 25 24 23 23 23 24 24 25 25 24 23 21 20 18 18 17 15 14 15 14 13 11 12 13 14 15 17 19 19 20 19
35 36 33 33 35 32 27 22 20 19 19 23 26 26 26 26 26 24 21 20 18 17 18 20 24 27 28 27 27 27 27 27 27 26 25 24 24 24 25 26 26 25 24 23 21 20 20 19 18 16 15 16 16 15 13 13 14 14 15 16 18 19 20
35 35 29 31 35 30 25 24 23 22 22 22 24 25 23 24 26 26 23 22 21 20 19 19 21 24 25 26 27 27 28 28 27 27 26 25 25 25 26 27 27 26 25 25 23 22 21 21 21 20 18 17 17 18 17 15 14 15 15 14 16 18 19
34 34 28 31 34 29 25 28 27 26 24 20 20 22 21 21 24 24 23 23 23 23 22 21 21 21 23 25 26 28 28 28 28 28 28 27 27 26 26 27 28 28 27 26 24 23 23 22 23 23 22 20 18 19 19 18 16 16 16 14 14 16 18
33 34 32 32 31 28 29 30 27 25 22 17 17 19 19 19 21 22 24 24 24 24 24 22 21 20 21 24 26 28 28 29 29 29 29 29 27 27 26 27 28 28 28 27 26 25 24 24 24 24 24 23 21 20 20 20 19 18 18 17 16 15 17
29 32 35 32 30 30 30 28 24 23 21 17 17 19 19 18 19 21 23 24 25 26 25 24 23 21 20 22 25 27 28 29 30 30 30 29 28 27 26 26 27 28 28 28 27 26 25 25 26 25 25 24 24 22 21 21 22 22 21 20 19 18 18
29 32 33 29 32 35 30 26 24 24 22 18 16 17 18 16 18 20 21 23 25 27 27 26 26 25 22 22 24 25 27 28 30 30 30 30 29 28 27 27 27 27 27 28 27 27 27 26 27 27 26 26 25 25 24 24 24 25 24 23 23 22 20
29 31 29 25 29 33 29 27 27 27 27 21 14 14 16 15 16 18 19 21 24 26 28 28 28 28 26 24 24 24 25 26 28 29 28 29 29 28 28 28 27 27 27 27 27 27 28 27 27 28 28 28 27 27 27 27 27 27 27 26 25 25 24
28 31 31 30 32 31 30 27 24 25 28 23 16 16 17 16 17 17 18 19 21 24 27 29 30 31 30 27 26 25 25 24 25 26 26 26 27 28 28 27 27 27 27 27 27 26 27 28 27 28 28 29 29 28 28 29 30 30 30 29 27 27 27
25 31 31 32 32 30 30 28 24 25 26 22 19 20 20 18 18 17 16 16 18 21 25 28 29 31 31 30 28 28 27 25 24 25 25 25 26 26 26 26 25 26 26 26 26 25 26 27 28 28 28 29 29 29 29 31 32 31 31 30 29 28 28
16 21 22 22 23 24 27 27 25 24 22 22 23 21 20 20 18 16 14 13 14 16 21 25 27 30 32 31 30 30 30 28 26 26 25 25 26 25 25 25 24 25 25 26 25 25 25 26 27 28 28 28 29 29 29 30 31 30 31 30 30 29 28
11 14 15 15 17 19 21 21 20 19 18 18 19 18 18 19 18 16 15 13 13 13 17 21 23 26 28 30 31 32 32 32 30 29 28 27 26 26 25 24 24 24 25 25 25 24 24 24 25 26 27 26 26 27 27 27 28 28 28 28 29 29 29
9 15 14 10 13 16 20 21 19 17 16 16 16 17 18 18 18 18 16 15 15 14 15 17 19 21 24 27 30 31 32 33 33 32 31 29 28 28 26 26 26 26 26 26 26 26 25 24 24 24 26 26 25 24 25 24 25 25 25 25 25 27 28
7 12 11 9 11 14 18 20 15 12 14 15 17 18 18 19 19 19 18 17 18 17 15 16 17 18 19 21 24 26 28 32 34 34 34 32 30 29 29 29 29 28 28 27 28 28 28 27 26 26 26 27 26 25 24 24 24 24 25 25 24 25 26
6 8 8 9 11 13 15 15 13 14 15 16 16 16 16 19 19 19 19 19 20 20 18 16 16 17 16 16 17 19 23 27 30 33 35 34 33 32 31 31 31 30 30 30 30 31 30 29 29 28 28 28 28 27 26 25 24 24 24 25 25 25 26
4 4 4 6 11 16 18 17 18 19 20 19 18 15 15 19 21 21 21 21 20 21 20 18 17 16 15 14 14 16 18 21 24 29 33 35 35 34 33 33 32 32 32 32 32 31 31 30 30 29 29 29 29 29 28 27 26 26 25 25 26 27 27
5 5 6 9 15 19 20 19 18 18 19 20 19 16 15 18 20 21 21 21 21 22 21 20 18 16 15 15 14 15 17 19 20 23 28 32 35 35 35 34 34 34 33 34 34 33 32 32 31 30 30 30 30 31 30 29 28 28 27 27 27 28 28
11 14 15 15 18 19 19 21 19 17 19 20 18 16 17 17 18 19 21 22 22 22 22 22 19 17 16 16 16 16 17 19 20 21 23 27 30 33 34 34 35 35 34 35 35 34 34 33 33 32 32 32 32 31 31 31 30 30 29 29 29 30 30
18 18 17 16 17 18 18 18 18 19 21 22 20 18 18 18 19 20 21 23 23 23 23 23 21 18 17 17 18 19 19 19 21 21 22 24 27 30 32 34 35 35 35 36 36 35 35 34 34 34 34 34 33 32 32 32 32 32 31 31 31 32 32
20 20 17 16 18 18 17 16 18 19 21 23 22 20 18 18 19 20 21 22 23 24 24 23 22 20 19 18 19 19 20 21 22 22 23 24 26 28 29 32 33 34 35 36 36 36 37 36 35 34 34 35 34 34 33 33 34 34 33 33 34 34 34
20 21 20 20 20 19 17 19 20 20 21 23 23 21 21 20 19 20 21 21 22 23 23 23 24 23 21 20 19 19 19 19 22 24 24 24 25 27 29 31 32 33 34 35 35 36 37 37 36 35 35 36 36 36 35 35 35 36 35 36 36 37 37
20 19 19 21 21 20 19 20 21 21 21 23 23 24 24 22 21 21 21 22 22 21 21 23 25 25 24 22 21 20 19 19 20 23 26 27 27 28 30 31 31 32 33 34 34 35 36 37 38 38 37 37 37 37 36 37 38 38 38 38 39 39 40
23 21 19 19 20 21 21 20 21 22 22 23 24 25 25 24 24 23 23 24 24 21 21 24 25 25 25 24 23 22 21 20 20 21 25 29 31 32 32 32 32 33 34 34 35 36 37 38 39 40 40 40 39 39 39 40 41 41 39 39 40 42 43
25 23 21 19 21 22 21 20 22 22 23 23 23 23 25 26 25 25 25 26 27 25 23 23 24 25 24 24 24 24 24 23 22 21 23 27 32 35 35 35 36 36 36 37 37 38 38 39 40 41 42 43 43 44 44 44 44 43 41 41 41 43 44
28 27 25 23 23 23 22 22 24 24 23 23 22 22 25 26 26 26 27 28 28 28 27 25 24 24 24 24 24 24 25 26 25 24 23 25 30 36 39 40 39 39 39 39 40 40 41 41 42 43 44 45 46 47 47 48 47 47 45 44 44 45 45
28 28 28 26 26 25 24 24 25 24 24 23 22 22 24 26 27 27 26 27 29 29 29 28 26 24 24 24 24 23 24 26 26 26 25 24 27 32 37 42 43 42 42 42 42 42 43 43 44 45 45 46 47 48 49 50 50 50 50 49 48 48 48
26 28 28 27 27 26 25 25 25 25 25 24 23 22 23 26 28 27 26 27 28 28 29 29 28 26 24 24 24 23 23 24 25 26 26 25 26 28 32 38 43 45 45 44 44 44 45 45 46 47 47 48 48 49 50 50 50 50 50 50 50 50 50
23 25 25 26 25 25 25 26 26 25 25 26 25 23 22 25 27 28 27 27 26 26 27 28 28 27 25 24 24 23 22 21 22 23 24 24 25 25 27 32 39 44 46 46 45 45 45 46 46 46 46 46 46 47 47 47 47 47 46 47 48 48 46
18 19 21 22 23 23 24 25 26 26 25 26 26 25 23 24 26 28 28 27 25 25 25 26 27 27 26 25 24 24 23 22 20 20 21 21 22 23 24 26 31 37 41 43 43 42 42 42 41 40 40 40 40 41 41 41 41 41 41 42 43 41 40
13 15 17 18 20 21 21 22 25 26 25 24 24 26 25 24 25 28 29 28 25 24 25 25 27 27 27 27 26 25 25 23 22 21 21 21 22 22 22 23 25 27 31 33 33 33 32 32 32 32 32 32 32 33 33 33 33 34 35 37 37 37 36
14 15 16 16 17 18 18 19 22 25 25 24 24 25 26 25 26 28 29 29 26 25 24 24 25 26 27 27 27 27 26 25 25 24 23 23 24 24 24 24 24 24 25 26 26 26 25 26 26 25 26 27 28 28 29 29 30 31 33 34 36 37 38
19 20 20 20 20 19 19 19 21 22 23 23 23 24 25 26 27 28 29 29 27 26 25 24 25 26 26 27 27 27 26 26 25 25 24 25 26 26 25 26 26 26 26 25 25 24 24 24 23 23 24 25 26 27 28 30 31 32 34 35 37 38 39
23 24 25 25 24 24 24 23 22 22 22 22 23 24 25 26 27 27 27 28 27 26 24 24 25 26 26 25 25 25 24 24 24 24 23 24 24 24 25 25 24 24 24 23 23 23 23 24 24 25 25 26 27 28 30 31 33 35 36 37 39 40 41
Wind_Direction
223 219 220 218 215 216 218 217 215 215 214 211 209 211 214 216 219 225 225 220 218 216 215 215 214 214 214 214 214 214 215 216 219 223 225 227 228 229 230 230 231 232 231 228 228 229 226 226 233 237 235 239 243 244 245 249 253 254 254 259 263 264 262
216 203 207 215 213 213 214 213 212 212 213 215 213 213 216 216 217 223 225 221 218 216 215 215 214 213 213 214 215 215 216 217 220 224 226 228 229 230 231 230 230 230 227 225 221 222 228 231 235 238 234 236 242 246 248 249 253 257 258 259 262 265 265
206 194 198 212 216 216 215 212 211 210 212 216 215 213 216 218 218 222 223 220 218 217 216 216 215 214 213 214 216 216 217 220 222 225 227 230 230 231 232 231 230 228 224 223 220 218 226 234 240 243 236 233 239 246 253 255 256 260 262 262 262 263 264
204 196 194 208 222 227 222 217 214 210 213 220 222 218 219 221 219 218 219 218 219 219 219 218 217 216 215 215 217 217 218 220 222 225 227 230 231 231 231 230 228 227 224 223 224 223 225 231 239 247 246 240 239 244 252 257 258 260 263 265 263 263 263
203 200 194 205 219 223 219 216 215 215 218 225 229 225 223 225 222 218 216 212 215 220 222 222 220 219 217 217 217 218 218 220 223 226 227 228 230 230 230 229 228 228 226 225 227 229 231 233 236 244 251 253 251 248 252 257 259 259 262 265 264 264 263
204 199 193 200 211 214 212 208 204 208 215 222 229 229 224 225 226 221 215 209 208 213 217 220 222 222 221 219 218 219 219 221 223 226 228 228 230 231 230 229 229 228 227 226 227 231 237 241 241 242 250 256 260 259 258 261 264 262 262 264 264 264 263
204 197 195 201 209 213 211 205 200 202 213 219 227 231 226 223 226 224 219 211 206 206 211 216 218 221 222 221 219 219 218 219 222 224 227 228 229 231 230 228 229 229 228 227 228 231 237 244 248 247 248 253 259 264 264 266 269 270 268 267 266 266 266
204 203 204 202 207 213 208 200 200 207 216 214 216 226 226 222 224 225 221 214 208 207 210 212 215 218 220 221 220 219 218 218 219 222 224 226 227 229 229 228 229 229 229 228 229 231 235 241 248 252 251 251 256 263 268 270 271 274 277 277 273 271 269
208 213 207 195 200 211 210 203 205 212 214 202 199 217 224 221 224 225 223 218 213 212 212 212 216 218 217 218 218 219 218 216 217 218 220 222 224 226 227 227 228 229 230 230 230 232 236 240 245 251 254 255 256 259 266 271 273 275 278 282 281 278 275
210 209 194 186 194 207 212 212 212 212 208 192 191 210 218 218 223 224 224 222 217 216 216 216 218 218 217 216 216 217 217 216 216 217 218 220 222 223 225 227 228 229 230 231 232 233 237 242 245 248 252 255 258 259 263 269 273 275 277 279 282 281 280
202 196 184 182 188 198 210 217 215 208 201 190 191 207 214 215 219 223 223 222 220 219 219 218 219 221 218 215 215 215 215 215 215 216 217 219 221 222 223 226 228 229 229 231 233 235 237 241 245 248 250 254 258 262 264 268 272 274 276 278 279 280 279
196 197 194 196 199 204 213 219 215 209 205 199 195 208 220 219 218 223 224 223 224 223 221 220 221 223 221 216 214 215 214 214 215 217 217 217 220 222 223 226 228 229 230 230 233 236 238 241 244 249 253 255 258 263 266 268 270 273 275 276 277 277 277
193 195 196 200 202 206 212 214 210 207 208 212 210 215 224 223 219 222 226 226 225 224 225 224 223 226 226 221 216 215 214 212 214 217 218 217 219 222 223 225 228 229 231 232 233 236 240 242 245 248 253 257 259 262 266 269 270 271 273 273 274 275 275
181 177 179 182 187 195 203 208 210 210 213 217 219 217 219 223 221 221 228 231 228 226 227 227 226 228 230 227 222 220 218 214 213 215 217 218 219 222 224 225 227 230 233 234 234 236 240 245 247 248 252 257 259 262 264 267 269 270 271 272 272 273 274
170 170 172 180 189 197 202 208 217 219 216 216 220 218 214 217 219 218 225 232 231 229 229 230 231 230 232 232 227 223 223 220 217 216 216 217 217 220 223 224 226 230 235 237 238 238 240 245 250 252 253 255 259 261 263 265 267 269 270 272 273 273 274
160 178 185 190 195 199 204 210 213 209 206 210 217 215 205 208 213 211 215 224 229 229 229 232 235 234 235 237 234 229 226 224 223 220 217 218 217 217 220 223 226 230 235 240 243 242 241 244 249 254 255 256 258 260 261 263 265 267 268 270 272 273 273
136 168 193 204 196 192 195 196 189 183 184 192 197 193 191 199 206 208 213 220 227 231 230 233 239 240 240 241 241 237 232 228 227 224 221 221 221 220 219 222 227 231 235 240 244 246 246 244 245 251 255 256 257 258 260 262 264 267 268 268 270 271 270
141 148 156 173 182 183 180 172 167 169 173 173 172 174 181 189 197 205 212 222 230 236 236 237 243 247 246 245 245 244 240 234 230 228 226 224 224 224 224 224 227 232 236 240 243 247 250 249 247 249 254 258 259 258 259 262 265 267 269 268 268 268 269
142 150 151 156 166 171 173 172 177 188 188 185 183 183 185 190 195 201 207 217 231 240 244 243 244 248 249 249 250 251 248 241 235 232 231 228 226 227 229 229 230 232 236 240 244 248 251 252 252 253 255 259 262 263 263 265 267 268 270 272 271 269 268
143 161 176 180 171 172 181 186 196 212 213 203 194 194 200 201 200 202 206 215 228 238 246 249 247 246 246 249 252 253 253 249 242 237 234 233 231 230 231 232 233 235 238 241 245 247 250 252 255 257 258 260 264 268 270 270 270 271 272 273 274 273 271
181 191 203 213 201 197 198 188 183 197 209 203 195 198 209 210 207 207 210 216 225 234 243 249 250 246 243 245 249 248 249 249 246 241 237 235 234 233 233 235 236 237 240 242 245 248 250 253 256 258 260 261 263 267 271 273 275 276 277 276 276 275 274
219 216 211 223 216 211 213 207 197 200 206 205 203 205 211 215 216 215 215 217 223 231 239 246 250 246 240 243 248 246 243 243 241 239 237 236 235 235 235 236 237 239 241 242 245 248 250 252 254 257 259 261 263 265 269 274 277 279 281 281 279 278 276
215 210 202 207 211 212 217 220 222 223 218 217 220 220 219 219 217 219 220 220 222 228 235 241 247 246 239 241 247 247 244 240 235 232 231 232 233 235 236 237 238 240 241 243 245 248 250 252 254 256 259 261 263 265 268 271 274 277 279 280 280 279 277
209 208 205 211 220 223 222 220 221 220 218 222 226 225 225 225 221 222 224 224 224 226 230 236 243 245 241 239 244 249 248 245 239 233 226 224 226 230 233 236 238 239 241 243 245 247 250 252 254 255 258 260 262 265 266 268 271 273 275 277 278 278 277
217 215 215 223 228 229 230 227 221 214 214 221 224 225 227 229 228 229 229 229 230 227 227 230 235 240 242 241 244 251 254 251 246 241 233 227 226 227 229 233 236 238 240 242 244 246 248 251 253 255 256 258 261 263 265 267 268 270 272 273 274 275 276
230 229 229 234 235 231 231 230 224 218 219 223 225 228 231 229 230 233 233 233 234 232 230 229 229 234 239 240 243 248 254 254 251 247 242 237 233 232 232 234 235 237 239 241 242 244 246 249 252 255 257 258 260 262 264 266 267 268 270 271 272 274 275
239 237 234 238 239 233 229 228 225 223 225 225 225 228 231 231 232 233 234 235 235 235 234 232 230 231 234 236 240 244 249 255 254 250 246 243 240 238 237 238 239 239 241 242 243 245 246 248 251 254 257 260 262 264 265 266 267 269 270 271 271 272 272
244 243 239 240 242 235 228 227 227 226 226 227 227 227 229 232 234 235 237 238 236 235 235 235 234 233 232 234 239 244 247 252 255 254 249 244 243 242 241 241 242 243 244 245 246 247 247 249 251 253 256 260 263 265 266 267 268 268 270 271 272 271 272
244 244 240 241 243 238 230 228 230 228 227 227 227 228 228 230 232 236 239 240 239 237 237 236 235 234 234 235 239 244 247 249 254 257 254 249 246 244 243 243 244 245 247 248 249 250 251 252 253 254 256 259 261 263 265 266 267 269 271 272 272 272 273
243 245 244 244 245 239 232 232 232 229 228 228 227 229 230 229 229 233 236 240 242 241 239 238 235 233 234 236 238 242 246 250 254 257 257 255 250 246 244 244 245 246 248 250 251 253 253 255 256 257 258 259 260 262 264 265 267 268 270 272 273 273 273
241 243 244 244 243 238 233 235 234 230 229 229 228 230 232 230 229 232 236 239 242 242 240 239 237 234 233 234 236 239 243 248 253 255 256 257 255 252 248 245 245 247 248 250 252 254 255 256 257 259 260 261 262 264 265 266 267 268 270 271 272 272 273
238 241 242 244 243 238 235 236 235 232 231 230 230 232 234 233 231 232 235 238 238 238 237 237 238 237 234 232 233 235 238 242 246 250 253 254 254 256 253 249 247 248 249 251 253 254 256 257 258 260 263 264 266 268 268 269 269 270 271 272 272 273 274
237 241 243 246 245 242 239 237 236 233 232 231 233 235 238 237 233 230 233 235 236 235 234 233 235 236 236 234 234 233 234 237 240 243 247 249 251 254 256 253 251 250 250 252 255 257 259 260 262 264 266 268 269 270 270 271 271 271 272 272 274 275 276
238 241 244 246 246 245 244 242 240 238 235 234 236 238 240 242 237 231 230 231 233 234 233 232 232 234 235 236 237 236 236 237 239 242 244 247 249 253 255 256 254 253 254 256 258 260 262 264 265 267 268 268 270 270 271 272 272 271 272 274 276 277 277
248 248 248 249 247 246 248 247 244 242 240 240 241 240 241 243 242 235 229 227 227 229 231 232 233 233 235 236 238 238 239 238 239 242 244 247 248 250 253 255 255 255 255 256 257 259 261 263 264 266 267 269 270 270 272 272 271 272 274 276 277 277 276
261 262 261 259 255 251 250 249 247 245 245 246 246 244 242 243 242 238 231 226 226 227 229 230 232 233 234 236 237 239 240 240 241 241 243 244 245 245 246 247 248 249 251 251 253 255 257 259 262 265 267 269 269 271 273 273 273 273 275 276 278 280 280
268 270 270 269 265 260 254 250 248 246 247 249 249 247 245 243 242 239 234 228 227 228 229 229 231 232 233 235 237 239 240 242 244 244 244 246 247 248 248 247 246 246 248 251 253 255 257 260 262 264 266 267 269 272 275 276 277 277 278 279 281 283 285
271 268 266 267 267 265 261 258 253 250 250 252 252 250 247 244 243 241 236 232 230 231 233 233 233 234 234 235 238 240 241 243 246 246 246 247 248 250 250 250 250 250 250 253 256 257 259 262 264 266 268 270 272 275 277 279 280 281 282 283 285 286 289
Height
3121 3122 3125 3129 3130 3132 3134 3136 3139 3141 3142 3142 3143 3146 3149 3152 3153 3154 3156 3158 3160 3161 3163 3165 3167 3169 3172 3174 3177 3179 3181 3183 3185 3187 3189 3190 3192 3194 3195 3197 3198 3200 3201 3203 3204 3205 3206 3207 3208 3209 3210 3212 3213 3214 3215 3215 3216 3217 3218 3219 3219 3220 3221
3119 3120 3121 3126 3128 3130 3132 3134 3137 3140 3140 3140 3141 3145 3147 3149 3151 3152 3153 3155 3157 3159 3161 3163 3165 3167 3169 3172 3175 3177 3179 3181 3183 3185 3187 3188 3190 3192 3194 3195 3197 3198 3200 3201 3203 3204 3204 3205 3206 3208 3209 3210 3211 3212 3213 3214 3215 3215 3216 3218 3218 3219 3220
3117 3118 3118 3121 3124 3128 3131 3132 3134 3136 3137 3138 3140 3142 3145 3147 3148 3150 3152 3153 3155 3157 3159 3161 3163 3165 3168 3170 3172 3175 3177 3179 3181 3183 3185 3187 3188 3190 3192 3193 3195 3197 3198 3200 3201 3202 3203 3204 3205 3206 3207 3209 3210 3211 3211 3212 3213 3214 3215 3216 3217 3218 3219
3112 3116 3118 3118 3120 3124 3127 3128 3130 3131 3133 3135 3137 3141 3143 3145 3147 3149 3150 3152 3154 3155 3157 3159 3161 3164 3166 3168 3170 3173 3175 3177 3179 3181 3183 3185 3187 3188 3190 3191 3193 3195 3196 3198 3199 3201 3202 3203 3204 3204 3206 3207 3208 3209 3210 3211 3212 3213 3213 3214 3215 3216 3217
3108 3113 3117 3118 3119 3123 3125 3126 3127 3128 3130 3133 3136 3140 3143 3144 3146 3147 3149 3151 3152 3154 3156 3158 3160 3162 3164 3166 3168 3170 3173 3175 3177 3179 3181 3183 3185 3186 3187 3189 3191 3193 3195 3196 3198 3199 3200 3201 3203 3204 3204 3206 3207 3208 3209 3209 3210 3211 3212 3212 3213 3214 3215
3106 3111 3114 3116 3118 3121 3123 3125 3127 3128 3130 3132 3135 3138 3141 3143 3144 3146 3147 3149 3151 3152 3154 3155 3157 3159 3161 3163 3166 3168 3171 3173 3175 3177 3179 3181 3183 3184 3185 3187 3189 3191 3193 3194 3196 3197 3199 3200 3201 3202 3204 3205 3206 3207 3208 3208 3209 3210 3210 3211 3211 3212 3213
3103 3108 3112 3114 3116 3119 3121 3124 3127 3128 3130 3132 3134 3136 3138 3141 3142 3144 3146 3147 3149 3150 3151 3153 3154 3156 3158 3161 3164 3166 3168 3171 3173 3175 3177 3179 3180 3182 3183 3185 3187 3189 3191 3192 3194 3196 3197 3198 3199 3201 3202 3203 3204 3205 3206 3207 3208 3208 3209 3210 3210 3211 3211
3100 3104 3109 3112 3113 3116 3120 3123 3125 3127 3129 3131 3132 3133 3135 3138 3140 3142 3143 3145 3147 3148 3149 3151 3152 3154 3156 3159 3161 3163 3166 3168 3171 3173 3174 3176 3178 3179 3181 3183 3185 3187 3189 3190 3192 3194 3195 3197 3198 3199 3200 3202 3203 3204 3205 3206 3207 3207 3208 3208 3209 3209 3210
3099 3100 3105 3110 3112 3116 3118 3120 3122 3124 3127 3129 3128 3129 3132 3136 3138 3139 3141 3143 3145 3146 3147 3149 3151 3152 3154 3157 3159 3161 3163 3166 3168 3170 3172 3173 3175 3177 3179 3181 3183 3185 3186 3188 3190 3192 3193 3195 3196 3197 3198 3199 3201 3202 3203 3204 3205 3206 3206 3207 3208 3208 3208
3097 3098 3102 3108 3112 3115 3116 3118 3121 3123 3125 3126 3124 3126 3130 3133 3135 3137 3139 3141 3143 3145 3146 3148 3150 3151 3153 3154 3156 3159 3161 3163 3165 3167 3169 3171 3173 3175 3177 3179 3181 3183 3185 3186 3188 3190 3191 3193 3194 3195 3196 3197 3198 3200 3201 3202 3203 3204 3204 3205 3206 3207 3207
3096 3097 3101 3106 3110 3112 3113 3116 3120 3122 3124 3124 3123 3124 3128 3130 3133 3135 3136 3138 3141 3143 3145 3147 3148 3150 3151 3153 3154 3156 3158 3160 3162 3164 3166 3168 3170 3173 3175 3177 3179 3181 3182 3184 3186 3187 3189 3190 3192 3193 3194 3195 3196 3198 3199 3200 3201 3201 3202 3203 3204 3205 3205
3094 3096 3100 3105 3107 3109 3112 3115 3118 3120 3122 3122 3123 3124 3126 3129 3131 3132 3134 3136 3138 3141 3143 3145 3146 3148 3149 3151 3153 3154 3156 3158 3159 3161 3164 3166 3168 3170 3173 3175 3176 3178 3180 3182 3184 3185 3186 3188 3189 3190 3191 3193 3195 3195 3196 3198 3198 3199 3200 3201 3202 3202 3203
3094 3096 3100 3104 3106 3108 3110 3113 3115 3117 3119 3121 3123 3124 3125 3127 3129 3131 3132 3134 3136 3138 3140 3142 3144 3145 3147 3149 3151 3152 3154 3155 3157 3159 3162 3164 3166 3168 3170 3172 3174 3175 3177 3179 3181 3183 3184 3185 3187 3188 3189 3191 3192 3193 3194 3195 3195 3196 3197 3198 3199 3200 3200
3093 3096 3099 3102 3104 3106 3108 3111 3113 3115 3117 3119 3121 3123 3124 3126 3127 3129 3131 3132 3134 3136 3137 3139 3141 3143 3144 3147 3149 3150 3152 3154 3156 3158 3160 3162 3164 3166 3168 3170 3171 3173 3175 3176 3178 3180 3181 3182 3184 3186 3187 3188 3189 3191 3191 3192 3192 3193 3193 3195 3196 3197 3197
3093 3096 3099 3101 3104 3106 3108 3110 3112 3113 3115 3117 3119 3121 3122 3124 3126 3127 3129 3130 3132 3134 3135 3137 3139 3140 3142 3144 3146 3148 3150 3153 3155 3156 3158 3160 3162 3164 3165 3167 3169 3171 3172 3174 3175 3178 3179 3180 3181 3183 3184 3185 3186 3187 3188 3188 3189 3189 3190 3191 3193 3194 3194
3096 3097 3099 3102 3104 3105 3107 3109 3110 3111 3113 3115 3117 3119 3120 3122 3124 3125 3127 3128 3130 3132 3133 3135 3136 3138 3139 3141 3143 3146 3149 3151 3153 3155 3156 3158 3159 3161 3163 3165 3167 3169 3170 3171 3173 3175 3177 3178 3179 3179 3181 3182 3183 3184 3185 3185 3186 3186 3188 3189 3190 3191 3192
3097 3098 3100 3101 3103 3104 3105 3107 3108 3110 3112 3114 3115 3117 3119 3120 3122 3124 3125 3126 3128 3130 3131 3133 3133 3135 3137 3138 3140 3143 3146 3148 3150 3152 3154 3156 3158 3159 3161 3163 3165 3166 3167 3169 3170 3171 3173 3175 3177 3177 3177 3179 3181 3181 3182 3182 3183 3184 3185 3186 3187 3188 3189
3095 3097 3099 3101 3102 3102 3104 3106 3108 3109 3111 3112 3113 3115 3117 3119 3120 3122 3123 3125 3126 3128 3129 3131 3132 3132 3134 3136 3137 3139 3142 3145 3148 3150 3151 3154 3155 3157 3159 3161 3162 3164 3165 3166 3167 3169 3170 3172 3174 3175 3175 3176 3177 3178 3179 3180 3181 3182 3182 3183 3184 3185 3185
3094 3097 3099 3100 3101 3102 3104 3106 3108 3109 3110 3111 3112 3113 3115 3116 3118 3120 3121 3123 3124 3126 3127 3129 3130 3130 3131 3133 3135 3136 3138 3141 3144 3147 3149 3151 3153 3155 3157 3158 3160 3161 3162 3164 3165 3166 3167 3169 3170 3172 3173 3173 3174 3175 3176 3177 3178 3179 3180 3180 3181 3182 3183
3095 3097 3098 3099 3101 3102 3103 3105 3106 3107 3108 3109 3110 3112 3113 3114 3116 3118 3119 3121 3123 3124 3125 3127 3128 3128 3129 3131 3132 3134 3135 3137 3140 3143 3146 3148 3151 3153 3154 3155 3157 3158 3160 3161 3163 3164 3165 3166 3167 3169 3170 3171 3171 3172 3173 3174 3175 3176 3176 3177 3178 3179 3179
3095 3096 3098 3099 3099 3099 3100 3102 3103 3103 3104 3106 3108 3110 3111 3112 3114 3115 3117 3119 3121 3122 3124 3125 3126 3127 3127 3129 3130 3132 3133 3134 3136 3139 3142 3145 3147 3149 3150 3152 3154 3156 3157 3158 3159 3160 3162 3163 3164 3165 3166 3168 3169 3169 3169 3170 3171 3172 3173 3174 3174 3175 3176
3093 3094 3096 3095 3095 3096 3098 3100 3101 3102 3103 3105 3106 3108 3109 3111 3112 3114 3115 3117 3119 3120 3122 3123 3124 3125 3126 3127 3128 3129 3131 3132 3134 3136 3138 3141 3143 3145 3147 3149 3150 3152 3154 3155 3156 3157 3159 3160 3161 3162 3163 3164 3165 3166 3166 3167 3168 3168 3169 3170 3170 3171 3172
3089 3089 3090 3090 3091 3094 3097 3099 3100 3101 3103 3104 3105 3107 3108 3109 3110 3112 3113 3114 3116 3118 3119 3121 3122 3123 3123 3125 3126 3127 3129 3130 3132 3133 3135 3137 3139 3141 3143 3145 3147 3149 3151 3152 3153 3154 3155 3156 3157 3158 3159 3160 3161 3162 3163 3164 3165 3165 3165 3166 3166 3166 3167
3084 3086 3088 3088 3089 3092 3095 3097 3099 3100 3101 3102 3103 3104 3106 3107 3108 3109 3110 3112 3114 3115 3117 3118 3120 3121 3121 3122 3124 3125 3126 3128 3129 3131 3133 3134 3136 3138 3140 3142 3144 3145 3147 3148 3150 3151 3152 3153 3154 3155 3156 3157 3157 3158 3159 3160 3161 3162 3162 3162 3162 3162 3162
3083 3085 3087 3087 3087 3090 3094 3095 3095 3096 3097 3099 3100 3102 3103 3105 3106 3107 3109 3110 3111 3113 3114 3116 3117 3118 3119 3120 3121 3122 3124 3125 3127 3129 3130 3132 3133 3135 3137 3138 3140 3142 3143 3144 3146 3147 3148 3149 3150 3151 3152 3153 3154 3155 3156 3156 3157 3158 3158 3158 3158 3158 3158
3081 3083 3084 3084 3085 3089 3091 3091 3092 3093 3094 3096 3098 3100 3101 3102 3104 3105 3107 3108 3109 3110 3112 3113 3114 3115 3116 3117 3118 3120 3121 3122 3124 3125 3127 3129 3131 3132 3134 3135 3137 3138 3139 3140 3142 3143 3144 3145 3146 3147 3147 3149 3150 3151 3152 3152 3153 3154 3155 3155 3155 3154 3154
3078 3080 3082 3082 3083 3086 3087 3087 3089 3090 3091 3093 3095 3096 3097 3099 3101 3103 3104 3106 3107 3108 3109 3110 3110 3112 3113 3114 3116 3117 3118 3120 3121 3122 3124 3126 3128 3129 3130 3132 3133 3135 3136 3137 3138 3139 3140 3141 3142 3143 3143 3144 3145 3146 3147 3148 3148 3149 3150 3151 3151 3150 3150
3075 3077 3079 3080 3080 3081 3083 3084 3086 3087 3088 3090 3091 3093 3095 3097 3098 3100 3102 3103 3104 3105 3106 3106 3108 3109 3110 3112 3113 3114 3115 3117 3118 3119 3120 3122 3124 3125 3127 3128 3130 3131 3132 3133 3134 3135 3136 3137 3138 3139 3139 3140 3141 3141 3142 3143 3143 3144 3146 3146 3146 3146 3145
3072 3074 3076 3077 3077 3078 3080 3082 3083 3084 3085 3086 3088 3090 3092 3093 3095 3097 3098 3099 3101 3102 3103 3104 3105 3106 3107 3109 3110 3111 3112 3113 3115 3116 3117 3118 3119 3121 3123 3125 3125 3126 3128 3128 3129 3130 3132 3133 3134 3134 3135 3136 3136 3137 3137 3138 3138 3139 3141 3141 3141 3141 3141
3069 3071 3072 3074 3074 3075 3077 3078 3079 3080 3082 3084 3086 3088 3088 3090 3091 3093 3094 3096 3097 3099 3100 3101 3102 3103 3105 3106 3107 3108 3109 3110 3111 3112 3113 3114 3115 3117 3119 3120 3121 3122 3124 3125 3126 3127 3128 3129 3130 3130 3131 3132 3132 3132 3133 3133 3134 3134 3135 3136 3137 3136 3136
3066 3067 3069 3070 3070 3072 3074 3075 3076 3078 3080 3081 3083 3085 3085 3086 3088 3089 3091 3093 3094 3096 3097 3098 3099 3100 3101 3102 3103 3104 3105 3106 3107 3109 3110 3111 3112 3113 3114 3116 3117 3119 3120 3121 3122 3123 3124 3125 3125 3126 3127 3127 3128 3128 3129 3129 3129 3129 3129 3130 3131 3131 3131
3063 3064 3065 3066 3067 3069 3070 3072 3073 3075 3077 3078 3080 3081 3082 3083 3084 3086 3088 3089 3090 3092 3093 3094 3096 3097 3098 3099 3100 3101 3102 3103 3104 3105 3106 3107 3108 3109 3110 3112 3113 3115 3116 3117 3118 3119 3120 3121 3121 3122 3123 3124 3124 3125 3125 3125 3125 3125 3125 3124 3125 3126 3127
3061 3062 3062 3063 3064 3066 3067 3069 3070 3072 3074 3075 3077 3078 3079 3080 3082 3083 3085 3086 3087 3089 3090 3091 3092 3093 3095 3096 3097 3098 3099 3100 3100 3101 3102 3103 3104 3105 3107 3108 3109 3111 3112 3113 3114 3115 3116 3117 3118 3119 3119 3120 3120 3121 3121 3121 3121 3121 3120 3119 3119 3121 3122
3059 3059 3060 3061 3062 3063 3064 3066 3067 3069 3070 3072 3074 3075 3076 3078 3079 3080 3082 3083 3084 3085 3087 3088 3089 3090 3092 3093 3094 3095 3096 3097 3098 3098 3099 3100 3101 3102 3103 3104 3105 3107 3108 3109 3110 3111 3112 3113 3114 3115 3115 3115 3116 3116 3116 3116 3116 3115 3114 3114 3114 3115 3116
3056 3057 3058 3058 3059 3060 3061 3063 3064 3065 3067 3069 3071 3072 3073 3074 3076 3077 3078 3080 3081 3082 3084 3085 3086 3087 3088 3089 3090 3091 3093 3094 3095 3095 3096 3097 3099 3099 3100 3101 3102 3103 3104 3105 3106 3108 3109 3109 3110 3110 3110 3111 3111 3111 3111 3111 3111 3110 3110 3109 3109 3109 3110
3054 3054 3055 3056 3056 3057 3059 3060 3061 3062 3064 3066 3067 3068 3069 3070 3072 3073 3075 3076 3078 3079 3080 3082 3083 3084 3085 3086 3087 3088 3089 3090 3091 3092 3094 3094 3095 3096 3098 3098 3099 3100 3100 3101 3103 3104 3105 3105 3105 3106 3106 3106 3106 3106 3107 3107 3107 3107 3106 3106 3105 3104 3105
3052 3053 3053 3054 3054 3054 3055 3056 3058 3059 3060 3062 3063 3064 3065 3067 3068 3070 3071 3073 3075 3076 3077 3079 3079 3080 3081 3082 3083 3084 3086 3087 3088 3090 3091 3091 3092 3094 3095 3096 3096 3097 3097 3098 3099 3100 3100 3101 3101 3102 3102 3102 3101 3102 3102 3102 3102 3102 3102 3101 3101 3100 3099
3050 3051 3051 3052 3052 3052 3052 3053 3054 3055 3057 3058 3059 3060 3062 3064 3065 3067 3068 3070 3072 3073 3074 3076 3076 3076 3078 3079 3080 3082 3083 3084 3085 3086 3088 3089 3090 3091 3092 3092 3093 3094 3094 3095 3096 3095 3096 3097 3097 3097 3098 3098 3098 3098 3098 3098 3098 3097 3097 3097 3096 3095 3094